PROFILE

 METAR AND TAF INFORMATION
ADDS - METARS form results

(1148 UTC 16 October 2019)
http://aviationweather.gov/metar/data/
 
MHTG 161100Z 00000KT 9999 FEW010 SCT026 BKN080 18/17 Q1020 A3012 NOSIG
TAF MHTG 161025Z 1612/1712 00000KT 9999 FEW010 BKN026 TX28/1621Z TN18/1712Z BECMG 1614/1616 18008KT SCT030 BECMG 1618/1620 SCT030TCU SCT080 PROB30 1622/1624 8000 TSVCSH SCT030CB SCT080 BECMG 1702/1704 00000KT 9999 NSW SCT026 SCT080 

 AIRPORT MAP

 RUNWAY INFORMATION
Runway 02 Runway length 6112 ft Runway width 148 ft
Runway elevation 3337 ft Runway displaced threshold 670 ft Runway heading 19
Runway 20 Runway length 6112 ft Runway width 148 ft
Runway elevation 3268 ft Runway displaced threshold 0 ft Runway heading 199

 AIRPORT FREQUENCIES
Type APP Name TONCONTIN Frequency 119.1 MHZ
Type ATIS Name ATIS Frequency 112.3 MHZ
Type GND Name GND Frequency 121.9 MHZ
Type RDO Name TEGUCIGALP Frequency 126.7 MHZ
Type TWR Name TWR Frequency 118.7 MHZ

 AIRPORT NEAR NAVIGATION AIDS
Type NDB Name Picacho Frequency 334 KHZ
Type VOR-DME Name Toncontin Frequency 112300 KHZ
Type NDB Name Toncontin Frequency 405 KHZ